Previsão horária em Cayo Levantado

Hoje, 25 Julho, Domingo

Tempo Temperatura Precipitação Vento Pressão Humidade
00:00 +26°C° 0.1 mm 2 m/s 746 mmHg 92%
01:00 +26°C° 0.1 mm 2 m/s 745 mmHg 92%
02:00 +26°C° 0.1 mm 2 m/s 745 mmHg 92%
03:00 +26°C° 0.1 mm 2 m/s 745 mmHg 92%
04:00 +25°C° 0.1 mm 2 m/s 745 mmHg 92%
05:00 +26°C° 0.2 mm 2 m/s 746 mmHg 91%
06:00 +26°C° 0.2 mm 2 m/s 746 mmHg 91%
07:00 +27°C° 0.2 mm 2 m/s 746 mmHg 90%
08:00 +28°C° 0.5 mm 3 m/s 746 mmHg 84%
09:00 +29°C° 0.5 mm 3 m/s 746 mmHg 79%
10:00 +30°C° 0.5 mm 3 m/s 747 mmHg 74%
11:00 +31°C° 0.2 mm 3 m/s 746 mmHg 70%
12:00 +32°C° 0.2 mm 4 m/s 746 mmHg 66%
13:00 +33°C° 0.2 mm 4 m/s 745 mmHg 63%
14:00 +32°C° 0.2 mm 4 m/s 745 mmHg 65%
15:00 +32°C° 0.2 mm 4 m/s 745 mmHg 68%
16:00 +30°C° 0.2 mm 4 m/s 745 mmHg 70%
17:00 +29°C° 0.2 mm 4 m/s 745 mmHg 76%
18:00 +28°C° 0.2 mm 4 m/s 746 mmHg 81%
19:00 +27°C° 0.2 mm 4 m/s 746 mmHg 86%
20:00 +27°C° 0.1 mm 3 m/s 747 mmHg 88%
21:00 +26°C° 0.1 mm 3 m/s 747 mmHg 90%
22:00 +26°C° 0.1 mm 2 m/s 747 mmHg 91%
23:00 +26°C° 0 mm 2 m/s 747 mmHg 91%

Amanhã, 26 Julho, Segunda-feira

Tempo Temperatura Precipitação Vento Pressão Humidade
00:00 +26°C° 0 mm 2 m/s 747 mmHg 92%
01:00 +25°C° 0 mm 2 m/s 746 mmHg 92%
02:00 +25°C° 0 mm 1 m/s 746 mmHg 92%
03:00 +25°C° 0 mm 1 m/s 746 mmHg 92%
04:00 +25°C° 0 mm 1 m/s 746 mmHg 92%
05:00 +26°C° 0 mm 1 m/s 747 mmHg 89%
06:00 +26°C° 0 mm 1 m/s 747 mmHg 85%
07:00 +27°C° 0 mm 1 m/s 747 mmHg 82%
08:00 +28°C° 0.1 mm 1 m/s 747 mmHg 76%
09:00 +30°C° 0.1 mm 2 m/s 747 mmHg 70%
10:00 +31°C° 0.1 mm 2 m/s 748 mmHg 64%
11:00 +31°C° 0.8 mm 3 m/s 747 mmHg 68%
12:00 +30°C° 0.8 mm 3 m/s 747 mmHg 72%
13:00 +30°C° 0.8 mm 3 m/s 747 mmHg 76%
14:00 +29°C° 0.4 mm 3 m/s 747 mmHg 79%
15:00 +28°C° 0.4 mm 3 m/s 747 mmHg 82%
16:00 +27°C° 0.4 mm 3 m/s 747 mmHg 86%
17:00 +27°C° 0 mm 2 m/s 747 mmHg 87%
18:00 +27°C° 0 mm 2 m/s 747 mmHg 88%
19:00 +26°C° 0 mm 2 m/s 748 mmHg 90%
20:00 +26°C° 0 mm 2 m/s 748 mmHg 90%
21:00 +26°C° 0 mm 2 m/s 748 mmHg 90%
22:00 +26°C° 0 mm 2 m/s 748 mmHg 91%
23:00 +26°C° 0.2 mm 2 m/s 748 mmHg 91%

Depois de amanhã, 27 Julho, Terça-feira

Tempo Temperatura Precipitação Vento Pressão Humidade
00:00 +26°C° 0.2 mm 3 m/s 748 mmHg 91%
01:00 +26°C° 0.2 mm 3 m/s 747 mmHg 92%
02:00 +26°C° 0.1 mm 3 m/s 747 mmHg 92%
03:00 +26°C° 0.1 mm 4 m/s 747 mmHg 92%
04:00 +26°C° 0.1 mm 4 m/s 747 mmHg 91%
05:00 +27°C° 0 mm 4 m/s 748 mmHg 89%
06:00 +27°C° 0 mm 4 m/s 748 mmHg 86%
07:00 +27°C° 0 mm 4 m/s 748 mmHg 83%
08:00 +28°C° 0 mm 4 m/s 749 mmHg 77%
09:00 +29°C° 0 mm 4 m/s 749 mmHg 72%
10:00 +30°C° 0 mm 4 m/s 749 mmHg 67%
11:00 +30°C° 0 mm 4 m/s 749 mmHg 66%
12:00 +30°C° 0 mm 4 m/s 748 mmHg 66%
13:00 +32°C° 0 mm 4 m/s 748 mmHg 66%
14:00 +30°C° 0.1 mm 4 m/s 748 mmHg 68%
15:00 +30°C° 0.1 mm 4 m/s 748 mmHg 70%
16:00 +30°C° 0.1 mm 4 m/s 747 mmHg 72%
17:00 +29°C° 0 mm 4 m/s 747 mmHg 76%
18:00 +28°C° 0 mm 4 m/s 748 mmHg 81%
19:00 +27°C° 0 mm 4 m/s 748 mmHg 85%
20:00 +27°C° 0.1 mm 4 m/s 748 mmHg 87%
21:00 +26°C° 0.1 mm 3 m/s 748 mmHg 89%
22:00 +26°C° 0.1 mm 3 m/s 748 mmHg 91%
23:00 +26°C° 0.1 mm 3 m/s 748 mmHg 90%

28 Julho, Quarta-feira

Tempo Temperatura Precipitação Vento Pressão Humidade
00:00 +26°C° 0.1 mm 3 m/s 747 mmHg 90%
01:00 +25°C° 0.1 mm 3 m/s 747 mmHg 90%
02:00 +25°C° 0.1 mm 3 m/s 747 mmHg 90%
03:00 +25°C° 0.1 mm 3 m/s 747 mmHg 90%
04:00 +25°C° 0.1 mm 3 m/s 747 mmHg 90%
05:00 +26°C° 0.1 mm 3 m/s 747 mmHg 88%
06:00 +26°C° 0.1 mm 3 m/s 747 mmHg 86%
07:00 +27°C° 0.1 mm 4 m/s 748 mmHg 83%
08:00 +28°C° 0.2 mm 4 m/s 748 mmHg 78%
09:00 +29°C° 0.2 mm 4 m/s 748 mmHg 72%
10:00 +30°C° 0.2 mm 4 m/s 748 mmHg 67%
11:00 +30°C° 0.1 mm 4 m/s 748 mmHg 66%
12:00 +30°C° 0.1 mm 4 m/s 747 mmHg 65%
13:00 +32°C° 0.1 mm 5 m/s 747 mmHg 64%
14:00 +30°C° 0 mm 5 m/s 747 mmHg 65%
15:00 +30°C° 0 mm 4 m/s 747 mmHg 66%
16:00 +30°C° 0 mm 4 m/s 746 mmHg 68%
17:00 +29°C° 0.1 mm 4 m/s 747 mmHg 73%
18:00 +28°C° 0.1 mm 4 m/s 747 mmHg 79%
19:00 +27°C° 0.1 mm 4 m/s 747 mmHg 85%
20:00 +26°C° 0.1 mm 4 m/s 747 mmHg 85%
21:00 +26°C° 0.1 mm 4 m/s 748 mmHg 85%
22:00 +26°C° 0.1 mm 4 m/s 748 mmHg 85%
23:00 +26°C° 0.3 mm 4 m/s 748 mmHg 86%

29 Julho, Quinta-feira

Tempo Temperatura Precipitação Vento Pressão Humidade
00:00 +26°C° 0.3 mm 4 m/s 747 mmHg 86%
01:00 +25°C° 0.3 mm 4 m/s 747 mmHg 86%
02:00 +25°C° 1 mm 3 m/s 747 mmHg 88%
03:00 +25°C° 1 mm 3 m/s 747 mmHg 90%
04:00 +24°C° 1 mm 3 m/s 747 mmHg 91%
05:00 +25°C° 0.2 mm 2 m/s 747 mmHg 90%
06:00 +25°C° 0.2 mm 2 m/s 747 mmHg 89%
07:00 +26°C° 0.2 mm 2 m/s 748 mmHg 87%
08:00 +27°C° 0.1 mm 2 m/s 748 mmHg 81%
09:00 +29°C° 0.1 mm 3 m/s 748 mmHg 74%
10:00 +30°C° 0.1 mm 3 m/s 748 mmHg 68%
11:00 +30°C° 0.4 mm 3 m/s 748 mmHg 68%
12:00 +30°C° 0.4 mm 4 m/s 748 mmHg 68%
13:00 +30°C° 0.4 mm 4 m/s 748 mmHg 68%
14:00 +29°C° 0.8 mm 4 m/s 747 mmHg 73%
15:00 +28°C° 0.8 mm 4 m/s 747 mmHg 79%
16:00 +28°C° 0.8 mm 4 m/s 747 mmHg 84%
17:00 +27°C° 0.8 mm 4 m/s 747 mmHg 86%
18:00 +26°C° 0.8 mm 4 m/s 748 mmHg 88%
19:00 +25°C° 0.8 mm 4 m/s 748 mmHg 90%
20:00 +25°C° 0.4 mm 3 m/s 749 mmHg 90%
21:00 +25°C° 0.4 mm 3 m/s 749 mmHg 91%
22:00 +25°C° 0.4 mm 3 m/s 749 mmHg 91%
23:00 +25°C° 0.3 mm 3 m/s 749 mmHg 91%

30 Julho, Sexta-feira

Tempo Temperatura Precipitação Vento Pressão Humidade
00:00 +25°C° 0.3 mm 3 m/s 749 mmHg 91%
01:00 +25°C° 0.3 mm 2 m/s 748 mmHg 91%
02:00 +25°C° 0 mm 2 m/s 748 mmHg 91%
03:00 +25°C° 0 mm 2 m/s 748 mmHg 91%
04:00 +25°C° 0 mm 2 m/s 748 mmHg 91%
05:00 +25°C° 0 mm 2 m/s 748 mmHg 90%
06:00 +25°C° 0 mm 2 m/s 748 mmHg 89%
07:00 +26°C° 0 mm 2 m/s 749 mmHg 89%
08:00 +27°C° 0 mm 2 m/s 749 mmHg 81%
09:00 +29°C° 0 mm 3 m/s 749 mmHg 73%
10:00 +30°C° 0 mm 4 m/s 749 mmHg 65%
11:00 +32°C° 0 mm 4 m/s 749 mmHg 63%
12:00 +32°C° 0 mm 4 m/s 749 mmHg 61%
13:00 +33°C° 0 mm 5 m/s 748 mmHg 59%
14:00 +32°C° 0 mm 5 m/s 748 mmHg 63%
15:00 +32°C° 0 mm 5 m/s 748 mmHg 67%
16:00 +30°C° 0 mm 5 m/s 748 mmHg 71%
17:00 +29°C° 0 mm 5 m/s 748 mmHg 75%
18:00 +28°C° 0 mm 5 m/s 748 mmHg 78%
19:00 +27°C° 0 mm 5 m/s 749 mmHg 82%
20:00 +27°C° 0 mm 4 m/s 749 mmHg 84%
21:00 +27°C° 0 mm 4 m/s 749 mmHg 86%
22:00 +27°C° 0 mm 4 m/s 749 mmHg 88%
23:00 +27°C° 0.4 mm 4 m/s 749 mmHg 89%
Mostrar mais

Necessitamos do seu Consentimento

A Meteoprog e os seus Fornecedores de Serviços podem armazenar e aceder a dados pessoais como cookies, identificadores do dispositivo ou outras tecnologias semelhantes existentes no seu dispositivo e processar estes dados para personalizar conteúdos e anúncios, assim como funcionalidades nas redes sociais e análise de tráfego.

  • Armazenar e/ou aceder a informações no seu dispositivo

    Os cookies, identificadores do dispositivo ou outras informações podem ser armazenados ou acedidos no seu dispositivo, para os fins acima indicados.

  • Anúncios e conteúdos personalizados, medição de anúncios e conteúdos, dados sobre o público-alvo e desenvolvimento de produtos

    Os anúncios e os conteúdos podem ser personalizados com base num perfil. Podem ser adicionados dados adicionais para uma maior personalização dos anúncios e dos conteúdos. A eficácia dos anúncios e dos conteúdos pode ser medida. Podem ser obtidas informações sobre o público que visualizou os anúncios e os conteúdos. Estes dados podem ser usados para desenvolver ou melhorar sistemas, softwares ou a experiência do utilizador.

Ao clicar em "Eu concordo”, permitirá o uso de cookies, identificadores do dispositivo e web beacons mencionados ou outras tecnologias semelhantes. As configurações do navegador do seu dispositivo podem ser alteradas.

Para certos fins, podem ser invocados interesses legítimos ao invés de consentimento. Pode ler mais informação sobre este assunto na nossa Política de Privacidade e Cookies.